When you browse on this site, cookies collect data to enhance your experience and personalize the content and advertising you see.
Visit our Privacy Policy to learn more. By continuing to use the site, you agree to this use of cookies and data.
  • In Spain
  • List of Countries
  • For 7 days
  • Water Temperature
  • Weather Map
  • Weather Widgets
  • user-avatar
    Login

    Hourly Weather Maksym

    Today, 23 February, Sunday

    Time Temperature Precipitation Wind Pressure Humidity
    00:00 +1°C° 0.1 mm 6 mps 753 mmHg 78%
    01:00 0°C° 0.1 mm 7 mps 752 mmHg 78%
    02:00 0°C° 0 mm 7 mps 750 mmHg 76%
    03:00 0°C° 0.3 mm 7 mps 749 mmHg 82%
    04:00 0°C° 0.3 mm 7 mps 748 mmHg 87%
    05:00 -1°C° 0.3 mm 7 mps 747 mmHg 92%
    06:00 0°C° 0.4 mm 7 mps 747 mmHg 89%
    07:00 +2°C° 0.4 mm 7 mps 747 mmHg 86%
    08:00 +2°C° 0 mm 6 mps 746 mmHg 81%
    09:00 +4°C° 0 mm 7 mps 746 mmHg 77%
    10:00 +5°C° 0 mm 7 mps 745 mmHg 72%
    11:00 +6°C° 0 mm 8 mps 745 mmHg 67%
    12:00 +5°C° 0.7 mm 7 mps 745 mmHg 70%
    13:00 +4°C° 0.7 mm 7 mps 744 mmHg 72%
    14:00 +4°C° 0.7 mm 7 mps 744 mmHg 74%
    15:00 +4°C° 0.1 mm 6 mps 744 mmHg 71%
    16:00 +5°C° 0.1 mm 5 mps 744 mmHg 67%
    17:00 +4°C° 0.1 mm 4 mps 744 mmHg 64%
    18:00 +4°C° 0 mm 4 mps 744 mmHg 68%
    19:00 +3°C° 0 mm 4 mps 744 mmHg 71%
    20:00 +2°C° 0 mm 5 mps 744 mmHg 75%
    21:00 +1°C° 0 mm 4 mps 743 mmHg 81%
    22:00 +1°C° 0 mm 4 mps 742 mmHg 87%
    23:00 +1°C° 0 mm 4 mps 741 mmHg 93%

    Tomorrow, 24 February, Monday

    Time Temperature Precipitation Wind Pressure Humidity
    00:00 +2°C° 0.4 mm 3 mps 740 mmHg 94%
    01:00 +2°C° 0.4 mm 3 mps 739 mmHg 96%
    02:00 +3°C° 0.4 mm 2 mps 738 mmHg 97%
    03:00 +2°C° 1.2 mm 3 mps 736 mmHg 97%
    04:00 +1°C° 1.2 mm 4 mps 734 mmHg 97%
    05:00 +1°C° 1.2 mm 5 mps 732 mmHg 97%
    06:00 -1°C° 2.1 mm 6 mps 732 mmHg 96%
    07:00 -1°C° 2.1 mm 8 mps 732 mmHg 96%
    08:00 -3°C° 2.1 mm 10 mps 732 mmHg 96%
    09:00 -1°C° 0.4 mm 9 mps 733 mmHg 90%
    10:00 0°C° 0.4 mm 9 mps 734 mmHg 85%
    11:00 0°C° 0.4 mm 9 mps 735 mmHg 79%
    12:00 +1°C° 0 mm 9 mps 736 mmHg 75%
    13:00 +1°C° 0 mm 9 mps 737 mmHg 72%
    14:00 +2°C° 0 mm 9 mps 739 mmHg 68%
    15:00 +1°C° 0 mm 9 mps 739 mmHg 71%
    16:00 +1°C° 0 mm 8 mps 740 mmHg 74%
    17:00 0°C° 0 mm 8 mps 741 mmHg 77%
    18:00 0°C° 0 mm 7 mps 742 mmHg 76%
    19:00 0°C° 0 mm 7 mps 743 mmHg 75%
    20:00 -1°C° 0 mm 6 mps 744 mmHg 74%
    21:00 -1°C° 0 mm 6 mps 745 mmHg 74%
    22:00 -1°C° 0 mm 6 mps 746 mmHg 75%
    23:00 -2°C° 0 mm 6 mps 746 mmHg 75%

    Day after tomorrow, 25 February, Tuesday

    Time Temperature Precipitation Wind Pressure Humidity
    00:00 -1°C° 0 mm 5 mps 747 mmHg 76%
    01:00 -2°C° 0 mm 4 mps 747 mmHg 78%
    02:00 -2°C° 0 mm 4 mps 748 mmHg 79%
    03:00 -2°C° 0 mm 3 mps 748 mmHg 81%
    04:00 -2°C° 0 mm 3 mps 747 mmHg 84%
    05:00 -2°C° 0 mm 2 mps 747 mmHg 86%
    06:00 -2°C° 0 mm 2 mps 747 mmHg 85%
    07:00 -1°C° 0 mm 2 mps 747 mmHg 83%
    08:00 -1°C° 0 mm 2 mps 747 mmHg 81%
    09:00 0°C° 0 mm 3 mps 747 mmHg 77%
    10:00 0°C° 0 mm 4 mps 747 mmHg 74%
    11:00 +1°C° 0 mm 5 mps 746 mmHg 70%
    12:00 +1°C° 0 mm 5 mps 746 mmHg 76%
    13:00 +1°C° 0 mm 6 mps 745 mmHg 82%
    14:00 +1°C° 0 mm 6 mps 745 mmHg 88%
    15:00 +1°C° 0.1 mm 6 mps 744 mmHg 89%
    16:00 +1°C° 0.1 mm 6 mps 743 mmHg 90%
    17:00 +1°C° 0.1 mm 6 mps 742 mmHg 91%
    18:00 +1°C° 0 mm 6 mps 742 mmHg 90%
    19:00 +1°C° 0 mm 6 mps 742 mmHg 89%
    20:00 +2°C° 0 mm 6 mps 742 mmHg 88%
    21:00 +2°C° 0 mm 5 mps 741 mmHg 84%
    22:00 +2°C° 0 mm 5 mps 741 mmHg 81%
    23:00 +2°C° 0 mm 5 mps 741 mmHg 78%

    26 February, Wednesday

    Time Temperature Precipitation Wind Pressure Humidity
    00:00 +2°C° 0 mm 5 mps 740 mmHg 77%
    01:00 +2°C° 0 mm 5 mps 740 mmHg 77%
    02:00 +2°C° 0 mm 5 mps 739 mmHg 77%
    03:00 +2°C° 0 mm 5 mps 739 mmHg 78%
    04:00 +3°C° 0 mm 4 mps 738 mmHg 79%
    05:00 +4°C° 0 mm 4 mps 738 mmHg 80%
    06:00 +3°C° 0.4 mm 4 mps 738 mmHg 83%
    07:00 +3°C° 0.4 mm 4 mps 738 mmHg 87%
    08:00 +3°C° 0.4 mm 3 mps 738 mmHg 91%
    09:00 +4°C° 0.1 mm 3 mps 738 mmHg 90%
    10:00 +4°C° 0.1 mm 4 mps 738 mmHg 89%
    11:00 +5°C° 0.1 mm 4 mps 738 mmHg 88%
    12:00 +5°C° 0 mm 3 mps 738 mmHg 82%
    13:00 +7°C° 0 mm 3 mps 738 mmHg 77%
    14:00 +7°C° 0 mm 3 mps 738 mmHg 71%
    15:00 +7°C° 0 mm 2 mps 738 mmHg 71%
    16:00 +7°C° 0 mm 2 mps 738 mmHg 71%
    17:00 +6°C° 0 mm 2 mps 738 mmHg 71%
    18:00 +5°C° 0 mm 2 mps 738 mmHg 74%
    19:00 +5°C° 0 mm 2 mps 739 mmHg 77%
    20:00 +4°C° 0 mm 2 mps 739 mmHg 79%
    21:00 +5°C° 0 mm 1 mps 739 mmHg 81%
    22:00 +4°C° 0 mm 1 mps 739 mmHg 83%
    23:00 +4°C° 0 mm 1 mps 739 mmHg 85%

    27 February, Thursday

    Time Temperature Precipitation Wind Pressure Humidity
    00:00 +4°C° 0 mm 1 mps 739 mmHg 85%
    01:00 +3°C° 0 mm 1 mps 739 mmHg 85%
    02:00 +3°C° 0 mm 1 mps 739 mmHg 85%
    03:00 +2°C° 0.2 mm 2 mps 738 mmHg 87%
    04:00 +2°C° 0.2 mm 2 mps 738 mmHg 88%
    05:00 +2°C° 0.2 mm 3 mps 738 mmHg 89%
    06:00 +2°C° 0.8 mm 3 mps 738 mmHg 91%
    07:00 +2°C° 0.8 mm 3 mps 738 mmHg 93%
    08:00 +2°C° 0.8 mm 3 mps 737 mmHg 95%
    09:00 +3°C° 0.2 mm 2 mps 737 mmHg 92%
    10:00 +4°C° 0.2 mm 2 mps 737 mmHg 89%
    11:00 +5°C° 0.2 mm 2 mps 737 mmHg 85%
    12:00 +5°C° 0 mm 2 mps 737 mmHg 84%
    13:00 +6°C° 0 mm 2 mps 737 mmHg 82%
    14:00 +6°C° 0 mm 2 mps 737 mmHg 80%
    15:00 +5°C° 0.4 mm 2 mps 737 mmHg 81%
    16:00 +4°C° 0.4 mm 3 mps 737 mmHg 83%
    17:00 +3°C° 0.4 mm 4 mps 737 mmHg 84%
    18:00 +3°C° 0.4 mm 4 mps 738 mmHg 85%
    19:00 +3°C° 0.4 mm 4 mps 738 mmHg 86%
    20:00 +3°C° 0.4 mm 4 mps 738 mmHg 86%
    21:00 +1°C° 0.2 mm 4 mps 739 mmHg 89%
    22:00 +1°C° 0.2 mm 4 mps 739 mmHg 91%
    23:00 0°C° 0.2 mm 4 mps 740 mmHg 93%

    28 February, Friday

    Time Temperature Precipitation Wind Pressure Humidity
    00:00 0°C° 0 mm 4 mps 740 mmHg 92%
    01:00 +1°C° 0 mm 3 mps 740 mmHg 91%
    02:00 0°C° 0 mm 3 mps 740 mmHg 89%
    03:00 0°C° 0 mm 3 mps 740 mmHg 89%
    04:00 0°C° 0 mm 3 mps 740 mmHg 89%
    05:00 -1°C° 0 mm 2 mps 741 mmHg 90%
    06:00 -1°C° 0 mm 3 mps 741 mmHg 89%
    07:00 -1°C° 0 mm 3 mps 741 mmHg 88%
    08:00 -1°C° 0 mm 3 mps 741 mmHg 87%
    09:00 0°C° 0 mm 3 mps 741 mmHg 79%
    10:00 +1°C° 0 mm 3 mps 741 mmHg 72%
    11:00 +2°C° 0 mm 3 mps 741 mmHg 65%
    12:00 +2°C° 0 mm 3 mps 741 mmHg 62%
    13:00 +3°C° 0 mm 3 mps 741 mmHg 60%
    14:00 +4°C° 0 mm 2 mps 741 mmHg 57%
    15:00 +4°C° 0 mm 2 mps 741 mmHg 60%
    16:00 +4°C° 0 mm 2 mps 741 mmHg 63%
    17:00 +4°C° 0 mm 2 mps 741 mmHg 66%
    18:00 +3°C° 0 mm 2 mps 741 mmHg 70%
    19:00 +2°C° 0 mm 3 mps 741 mmHg 74%
    20:00 +1°C° 0 mm 3 mps 741 mmHg 77%
    21:00 +1°C° 0.2 mm 3 mps 740 mmHg 83%
    22:00 +1°C° 0.2 mm 3 mps 740 mmHg 88%
    23:00 0°C° 0.2 mm 4 mps 740 mmHg 94%
    Show more